| time (UTC) | temp F | wind direction | speed MPH | gust MPH | rain 1hr in | rain 24hr in | rain mn in | humidity % | barometer mb |
| 20260503223516 | 69 | 248 | 11.0 | 15.0 | 0.00 | 0.00 | 0.00 | 44 | 1003.4 |
| 20260503222516 | 69 | 225 | 13.0 | 16.0 | 0.00 | 0.00 | 0.00 | 44 | 1003.3 |
| 20260503221516 | 69 | 225 | 13.0 | 17.0 | 0.00 | 0.00 | 0.00 | 44 | 1003.3 |
| 20260503220516 | 68 | 225 | 13.0 | 18.0 | 0.00 | 0.00 | 0.00 | 45 | 1003.2 |
| 20260503215516 | 70 | 225 | 8.0 | 16.0 | 0.00 | 0.00 | 0.00 | 44 | 1003.5 |
| 20260503214520 | 69 | 225 | 10.0 | 16.0 | 0.00 | 0.00 | 0.00 | 45 | 1003.6 |
| 20260503213516 | 69 | 225 | 8.0 | 14.0 | 0.00 | 0.00 | 0.00 | 46 | 1003.8 |
| 20260503212539 | 70 | 225 | 10.0 | 16.0 | 0.00 | 0.00 | 0.00 | 46 | 1003.9 |
| 20260503211516 | 69 | 203 | 5.0 | 12.0 | 0.00 | 0.00 | 0.00 | 46 | 1004.0 |
| 20260503210536 | 69 | 225 | 5.0 | 11.0 | 0.00 | 0.00 | 0.00 | 46 | 1004.2 |
| 20260503205516 | 69 | 225 | 9.0 | 17.0 | 0.00 | 0.00 | 0.00 | 46 | 1004.2 |
| 20260503204516 | 69 | 203 | 8.0 | 14.0 | 0.00 | 0.00 | 0.00 | 46 | 1004.3 |
| 20260503203516 | 69 | 203 | 6.0 | 15.0 | 0.00 | 0.00 | 0.00 | 45 | 1004.4 |
| 20260503202517 | 69 | 225 | 5.0 | 15.0 | 0.00 | 0.00 | 0.00 | 46 | 1004.6 |
| 20260503201517 | 69 | 203 | 6.0 | 12.0 | 0.00 | 0.00 | 0.00 | 46 | 1004.7 |
| 20260503200516 | 69 | 203 | 5.0 | 13.0 | 0.00 | 0.00 | 0.00 | 45 | 1005.0 |
| 20260503195516 | 69 | 225 | 5.0 | 14.0 | 0.00 | 0.00 | 0.00 | 46 | 1005.1 |
| 20260503194536 | 69 | 225 | 5.0 | 12.0 | 0.00 | 0.00 | 0.00 | 46 | 1005.2 |
| 20260503193516 | 69 | 203 | 6.0 | 13.0 | 0.00 | 0.00 | 0.00 | 46 | 1005.2 |
| 20260503192516 | 69 | 225 | 4.0 | 10.0 | 0.00 | 0.00 | 0.00 | 46 | 1005.3 |
| 20260503191516 | 68 | 225 | 6.0 | 17.0 | 0.00 | 0.00 | 0.00 | 44 | 1005.4 |
| 20260503190536 | 68 | 203 | 8.0 | 16.0 | 0.00 | 0.00 | 0.00 | 47 | 1005.5 |
| 20260503185516 | 68 | 225 | 6.0 | 16.0 | 0.00 | 0.00 | 0.00 | 47 | 1005.7 |
| 20260503184517 | 68 | 203 | 5.0 | 14.0 | 0.00 | 0.00 | 0.00 | 48 | 1005.8 |
| 20260503183516 | 67 | 203 | 7.0 | 13.0 | 0.00 | 0.00 | 0.00 | 50 | 1005.9 |
| 20260503182516 | 67 | 203 | 10.0 | 18.0 | 0.00 | 0.00 | 0.00 | 50 | 1006.0 |
| 20260503181516 | 67 | 203 | 6.0 | 14.0 | 0.00 | 0.00 | 0.00 | 51 | 1006.3 |
| 20260503180516 | 67 | 203 | 7.0 | 14.0 | 0.00 | 0.00 | 0.00 | 53 | 1006.3 |
| 20260503175516 | 66 | 225 | 7.0 | 16.0 | 0.00 | 0.00 | 0.00 | 50 | 1006.4 |
| 20260503174516 | 67 | 203 | 6.0 | 14.0 | 0.00 | 0.00 | 0.00 | 53 | 1006.6 |
| 20260503173516 | 66 | 225 | 5.0 | 9.0 | 0.00 | 0.00 | 0.00 | 54 | 1006.7 |
| 20260503172516 | 66 | 203 | 11.0 | 17.0 | 0.00 | 0.00 | 0.00 | 54 | 1007.0 |
| 20260503171516 | 65 | 225 | 12.0 | 19.0 | 0.00 | 0.00 | 0.00 | 54 | 1007.1 |
| 20260503170516 | 62 | 203 | 6.0 | 12.0 | 0.00 | 0.00 | 0.00 | 56 | 1007.2 |
| 20260503150516 | 56 | 203 | 6.0 | 15.0 | 0.00 | 0.00 | 0.00 | 61 | 1008.2 |
| 20260503130516 | 51 | 225 | 1.0 | 4.0 | 0.00 | 0.00 | 0.00 | 65 | 1009.7 |
| 20260503110517 | 47 | 225 | 1.0 | 4.0 | 0.00 | 0.00 | 0.00 | 75 | 1010.5 |
| 20260503081519 | 48 | 203 | 1.0 | 5.0 | 0.00 | 0.00 | 0.00 | 66 | 1011.3 |
| 20260503080518 | 48 | 203 | 1.0 | 4.0 | 0.00 | 0.00 | 0.00 | 66 | 1011.4 |
| 20260503072517 | 45 | 225 | 2.0 | 5.0 | 0.00 | 0.00 | 0.00 | 77 | 1011.7 |
| 20260503071517 | 43 | 0.0 | 2.0 | 0.00 | 0.00 | 0.00 | 82 | 1011.8 | |
| 20260503070517 | 42 | 0.0 | 1.0 | 0.00 | 0.00 | 0.00 | 84 | 1011.4 | |
| 20260503054537 | 40 | 0.0 | 1.0 | 0.00 | 0.00 | 0.00 | 82 | 1012.8 | |
| 20260503053537 | 40 | 0.0 | 1.0 | 0.00 | 0.00 | 0.00 | 81 | 1012.9 | |
| 20260503052517 | 39 | 225 | 1.0 | 2.0 | 0.00 | 0.00 | 0.00 | 80 | 1012.9 |
| 20260503051518 | 39 | 0.0 | 1.0 | 0.00 | 0.00 | 0.00 | 80 | 1012.9 | |
| 20260503050518 | 39 | 0.0 | 1.0 | 0.00 | 0.00 | 0.00 | 80 | 1013.0 | |
| 20260503045517 | 39 | 225 | 1.0 | 3.0 | 0.00 | 0.00 | 0.00 | 79 | 1013.1 |
| 20260503044517 | 39 | 0.0 | 3.0 | 0.00 | 0.00 | 0.00 | 79 | 1013.2 | |
| 20260503043517 | 40 | 248 | 1.0 | 2.0 | 0.00 | 0.00 | 0.00 | 78 | 1013.1 |
| 20260503042517 | 40 | 225 | 1.0 | 2.0 | 0.00 | 0.00 | 0.00 | 77 | 1013.2 |
| 20260503041517 | 40 | 0.0 | 2.0 | 0.00 | 0.00 | 0.00 | 77 | 1013.2 | |
| 20260503040517 | 40 | 225 | 1.0 | 2.0 | 0.00 | 0.00 | 0.00 | 76 | 1013.4 |
| 20260503035517 | 40 | 225 | 1.0 | 2.0 | 0.00 | 0.00 | 0.00 | 76 | 1013.6 |
| 20260503034518 | 40 | 0.0 | 2.0 | 0.00 | 0.00 | 0.00 | 76 | 1013.7 | |
| 20260503033519 | 40 | 248 | 1.0 | 2.0 | 0.00 | 0.00 | 0.00 | 76 | 1013.7 |
| 20260503032538 | 41 | 270 | 1.0 | 4.0 | 0.00 | 0.00 | 0.00 | 75 | 1013.9 |
| 20260503031517 | 41 | 270 | 2.0 | 5.0 | 0.00 | 0.00 | 0.00 | 74 | 1014.1 |
| 20260503030518 | 42 | 270 | 2.0 | 6.0 | 0.00 | 0.00 | 0.00 | 72 | 1014.0 |
| 20260503025557 | 43 | 270 | 3.0 | 5.0 | 0.00 | 0.00 | 0.00 | 70 | 1014.2 |
| 20260503024517 | 43 | 270 | 3.0 | 6.0 | 0.00 | 0.00 | 0.00 | 70 | 1014.4 |
| 20260503023517 | 43 | 293 | 3.0 | 5.0 | 0.00 | 0.00 | 0.00 | 70 | 1014.3 |
| 20260503022517 | 43 | 270 | 2.0 | 5.0 | 0.00 | 0.00 | 0.00 | 70 | 1014.2 |
| 20260503021517 | 44 | 270 | 3.0 | 5.0 | 0.00 | 0.00 | 0.00 | 68 | 1014.3 |
| 20260503020517 | 45 | 293 | 3.0 | 6.0 | 0.00 | 0.00 | 0.00 | 67 | 1014.3 |
| 20260503015517 | 45 | 293 | 4.0 | 7.0 | 0.00 | 0.00 | 0.00 | 65 | 1014.3 |
| 20260503014517 | 46 | 293 | 4.0 | 8.0 | 0.00 | 0.00 | 0.00 | 64 | 1014.2 |
| 20260503013518 | 47 | 293 | 5.0 | 11.0 | 0.00 | 0.00 | 0.00 | 62 | 1014.1 |
| 20260503012517 | 47 | 68 | 4.0 | 12.0 | 0.00 | 0.00 | 0.00 | 61 | 1014.1 |
| 20260503011517 | 48 | 293 | 4.0 | 7.0 | 0.00 | 0.00 | 0.00 | 62 | 1014.2 |
| 20260503010537 | 48 | 270 | 4.0 | 11.0 | 0.00 | 0.00 | 0.00 | 60 | 1014.0 |
| 20260503005537 | 49 | 68 | 4.0 | 8.0 | 0.00 | 0.00 | 0.00 | 60 | 1014.1 |
| 20260503004516 | 50 | 293 | 4.0 | 7.0 | 0.00 | 0.00 | 0.00 | 59 | 1014.0 |
| 20260503003517 | 51 | 90 | 4.0 | 9.0 | 0.00 | 0.00 | 0.00 | 58 | 1014.2 |
| 20260503002517 | 53 | 248 | 4.0 | 8.0 | 0.00 | 0.00 | 0.00 | 53 | 1014.1 |
| 20260503001537 | 54 | 270 | 2.0 | 5.0 | 0.00 | 0.00 | 0.00 | 49 | 1014.1 |
| 20260503000517 | 55 | 248 | 2.0 | 5.0 | 0.00 | 0.00 | 0.00 | 45 | 1014.2 |
| 20260502235537 | 56 | 248 | 2.0 | 5.0 | 0.00 | 0.00 | 0.00 | 46 | 1014.1 |
| 20260502234516 | 56 | 225 | 2.0 | 5.0 | 0.00 | 0.00 | 0.00 | 44 | 1014.3 |
| 20260502233537 | 57 | 225 | 1.0 | 4.0 | 0.00 | 0.00 | 0.00 | 44 | 1014.4 |
| 20260502232517 | 57 | 225 | 1.0 | 5.0 | 0.00 | 0.00 | 0.00 | 43 | 1014.5 |
| 20260502231517 | 58 | 225 | 3.0 | 8.0 | 0.00 | 0.00 | 0.00 | 43 | 1014.6 |
| 20260502230537 | 58 | 225 | 7.0 | 10.0 | 0.00 | 0.00 | 0.00 | 37 | 1014.6 |
| 20260502225517 | 58 | 248 | 8.0 | 12.0 | 0.00 | 0.00 | 0.00 | 37 | 1014.7 |
| 20260502224517 | 58 | 225 | 7.0 | 11.0 | 0.00 | 0.00 | 0.00 | 38 | 1014.8 |